This is the latest recevied weather packets stored in our database for station/object N0NAI-13. If no packets are shown the sender has not sent any weather packets the latest 10 day(s).
| Time | Temp. | Humidity | Pressure | Rain* | Wind** | Luminosity | Snow |
|---|---|---|---|---|---|---|---|
| 1777574128 | 13.89° C | 47% | 1018.5 hPa | 0 mm | - | - | - |
| 1777573531 | 12.22° C | 49% | 1018.6 hPa | 0 mm | - | - | - |
| 1777572916 | 11.11° C | 50% | 1018.6 hPa | 0 mm | - | - | - |
| 1777572319 | 11.11° C | 49% | 1018.6 hPa | 0 mm | - | - | - |
| 1777571722 | 11.11° C | 49% | 1018.8 hPa | 0 mm | - | - | - |
| 1777570522 | 12.78° C | 46% | 1018.8 hPa | 0 mm | - | - | - |
| 1777569924 | 12.78° C | 52% | 1018.8 hPa | 0 mm | - | - | - |
| 1777568725 | 11.11° C | 48% | 1019 hPa | 0 mm | - | - | - |
| 1777565123 | 10° C | 52% | 1018.8 hPa | 0 mm | - | - | - |
| 1777563331 | 10.56° C | 54% | 1019 hPa | 0 mm | - | - | - |
| 1777562716 | 10° C | 57% | 1019 hPa | 0 mm | - | - | - |
| 1777561522 | 9.44° C | 60% | 1018.9 hPa | 0 mm | - | - | - |
| 1777560925 | 9.44° C | 62% | 1019.1 hPa | 0 mm | - | - | - |
| 1777559116 | 7.78° C | 68% | 1019 hPa | 0 mm | - | - | - |
| 1777557324 | 7.78° C | 70% | 1019.1 hPa | 0 mm | - | - | - |
| 1777556727 | 7.22° C | 73% | 1019 hPa | 0 mm | - | - | - |
| 1777555533 | 6.67° C | 75% | 1018.8 hPa | 0 mm | - | - | - |
| 1777554918 | 6.67° C | 75% | 1018.8 hPa | 0 mm | - | - | - |
| 1777554321 | 6.67° C | 77% | 1018.9 hPa | 0 mm | - | - | - |
| 1777553723 | 6.11° C | 76% | 1018.6 hPa | 0 mm | - | - | - |
| 1777553121 | 6.11° C | 76% | 1018.6 hPa | 0 mm | - | - | - |
| 1777552518 | 6.11° C | 78% | 1018.6 hPa | 0 mm | - | - | - |
| 1777551318 | 5.56° C | 79% | 1018.3 hPa | 0 mm | - | - | - |
| 1777550721 | 5.56° C | 80% | 1018.1 hPa | 0 mm | - | - | - |
| 1777550123 | 5.56° C | 81% | 1018.3 hPa | 0 mm | - | - | - |
* Rain latest hour (hover to see other rain measurements)
** Current wind speed in m/s (hover to see current wind gust speed)